SWA1624 KDAL-KOKC

Flight info

Callsign SWA1624
Flight time 0h 49m
Altitude 30000
Route SWTSR7 ZEMMA TSDEL3
Aircraft B38M/M-SDE1FGHILORVWXY/HB1

Departure

Time 2026-05-07 22:54
Airport Dallas Love Field (KDAL)

Arrival

Time 2026-05-07 23:44
Airport OKC Will Rogers World Airport (KOKC)
Time Latitude Longitude Altitude Speed Heading
2026-05-07 22:27 32.84564 -96.85200 487 ft 0 kts 32°
2026-05-07 22:37 32.84561 -96.85202 480 ft 2 kts 32°
2026-05-07 22:37 32.84546 -96.85211 481 ft 2 kts 20°
2026-05-07 22:37 32.84530 -96.85216 477 ft 2 kts
2026-05-07 22:38 32.84514 -96.85216 480 ft 2 kts 346°
2026-05-07 22:38 32.84498 -96.85208 487 ft 2 kts 326°
2026-05-07 22:38 32.84486 -96.85195 479 ft 2 kts 313°
2026-05-07 22:38 32.84476 -96.85182 480 ft 1 kts 305°
2026-05-07 22:43 32.84477 -96.85183 480 ft 1 kts 305°
2026-05-07 22:44 32.84482 -96.85195 480 ft 3 kts 294°
2026-05-07 22:44 32.84496 -96.85224 479 ft 5 kts 302°
2026-05-07 22:44 32.84509 -96.85265 480 ft 6 kts 284°
2026-05-07 22:44 32.84512 -96.85317 485 ft 7 kts 271°
2026-05-07 22:45 32.84525 -96.85339 481 ft 1 kts 333°
2026-05-07 22:45 32.84531 -96.85341 483 ft 1 kts 343°
2026-05-07 22:45 32.84544 -96.85342 485 ft 4 kts 359°
2026-05-07 22:45 32.84562 -96.85341 479 ft 7 kts
2026-05-07 22:46 32.84587 -96.85339 483 ft 10 kts
2026-05-07 22:46 32.84684 -96.85329 487 ft 18 kts
2026-05-07 22:46 32.84739 -96.85288 484 ft 9 kts 76°
2026-05-07 22:47 32.84736 -96.85229 487 ft 0 kts 113°
2026-05-07 22:48 32.84736 -96.85228 486 ft 0 kts 109°
2026-05-07 22:49 32.84737 -96.85227 486 ft 0 kts 99°
2026-05-07 22:50 32.84740 -96.85202 485 ft 7 kts 83°
2026-05-07 22:50 32.84746 -96.85103 488 ft 17 kts 89°
2026-05-07 22:50 32.84743 -96.84930 491 ft 21 kts 99°
2026-05-07 22:50 32.84720 -96.84797 486 ft 19 kts 104°
2026-05-07 22:51 32.84625 -96.84655 490 ft 25 kts 136°
2026-05-07 22:51 32.84469 -96.84525 490 ft 29 kts 144°
2026-05-07 22:51 32.84323 -96.84363 497 ft 26 kts 131°
2026-05-07 22:51 32.84204 -96.84219 495 ft 24 kts 137°
2026-05-07 22:52 32.84100 -96.84087 489 ft 15 kts 106°
2026-05-07 22:52 32.84129 -96.84027 495 ft 9 kts 49°
2026-05-07 22:52 32.84133 -96.84021 490 ft 9 kts 49°
2026-05-07 22:53 32.84158 -96.83989 490 ft 10 kts 45°
2026-05-07 22:53 32.84215 -96.83949 490 ft 7 kts 355°
2026-05-07 22:53 32.84252 -96.83976 492 ft 7 kts 318°
2026-05-07 22:53 32.84420 -96.84171 500 ft 74 kts 315°
2026-05-07 22:54 32.84978 -96.84832 485 ft 148 kts 311°
2026-05-07 22:54 32.85812 -96.85707 1032 ft 163 kts 317°
2026-05-07 22:54 32.86631 -96.86695 1650 ft 164 kts 315°
2026-05-07 22:54 32.87455 -96.87663 2205 ft 175 kts 315°
2026-05-07 22:55 32.88322 -96.88692 2511 ft 182 kts 315°
2026-05-07 22:55 32.89268 -96.89822 2765 ft 194 kts 315°
2026-05-07 22:55 32.90255 -96.90968 2960 ft 207 kts 320°
2026-05-07 22:55 32.91620 -96.91547 3196 ft 219 kts
2026-05-07 22:56 32.93210 -96.91239 3441 ft 245 kts 16°
2026-05-07 22:56 32.94868 -96.90643 4050 ft 256 kts 26°
2026-05-07 22:56 32.96230 -96.89254 4759 ft 263 kts 56°
2026-05-07 22:56 32.96838 -96.87180 5440 ft 273 kts 88°
2026-05-07 22:57 32.96425 -96.84968 6166 ft 281 kts 121°
2026-05-07 22:57 32.95057 -96.83326 6850 ft 285 kts 157°
2026-05-07 22:57 32.93146 -96.82832 7597 ft 281 kts 185°
2026-05-07 22:57 32.91166 -96.83005 7992 ft 286 kts 191°
2026-05-07 22:58 32.89211 -96.83330 8048 ft 282 kts 192°
2026-05-07 22:58 32.87247 -96.83500 8054 ft 286 kts 176°
2026-05-07 22:58 32.85397 -96.82632 8072 ft 297 kts 150°
2026-05-07 22:58 32.83763 -96.81107 8067 ft 299 kts 142°
2026-05-07 22:59 32.82245 -96.79465 8480 ft 296 kts 142°
2026-05-07 22:59 32.80643 -96.77871 9002 ft 302 kts 146°
2026-05-07 22:59 32.78978 -96.76334 9520 ft 305 kts 147°
2026-05-07 22:59 32.77309 -96.74771 10023 ft 307 kts 146°
2026-05-07 23:00 32.75636 -96.73159 10491 ft 311 kts 146°
2026-05-07 23:00 32.73951 -96.71536 10965 ft 314 kts 146°
2026-05-07 23:00 32.72244 -96.69910 11446 ft 317 kts 147°
2026-05-07 23:00 32.70508 -96.68256 11945 ft 319 kts 145°
2026-05-07 23:01 32.69059 -96.66273 12431 ft 328 kts 122°
2026-05-07 23:01 32.68310 -96.63658 12970 ft 339 kts 97°
2026-05-07 23:01 32.68180 -96.60875 13498 ft 345 kts 91°
2026-05-07 23:01 32.68247 -96.58012 14005 ft 347 kts 78°
2026-05-07 23:02 32.69089 -96.55347 14510 ft 346 kts 54°
2026-05-07 23:02 32.70673 -96.53260 15034 ft 340 kts 31°
2026-05-07 23:02 32.72747 -96.52005 15565 ft 333 kts 12°
2026-05-07 23:02 32.74973 -96.51175 16077 ft 335 kts
2026-05-07 23:03 32.77230 -96.50391 16581 ft 339 kts
2026-05-07 23:03 32.79498 -96.49718 17086 ft 334 kts 357°
2026-05-07 23:03 32.81781 -96.49867 17643 ft 323 kts 338°
2026-05-07 23:03 32.83829 -96.50826 18207 ft 312 kts 321°
2026-05-07 23:04 32.85553 -96.52360 18695 ft 309 kts 314°
2026-05-07 23:04 32.87212 -96.53977 19155 ft 310 kts 313°
2026-05-07 23:04 32.88879 -96.55614 19625 ft 310 kts 313°
2026-05-07 23:04 32.90534 -96.57231 20090 ft 311 kts 313°
2026-05-07 23:05 32.92198 -96.58851 20569 ft 311 kts 313°
2026-05-07 23:05 32.93877 -96.60490 21064 ft 312 kts 313°
2026-05-07 23:05 32.94996 -96.61585 21391 ft 313 kts 313°
2026-05-07 23:05 32.97244 -96.63784 22066 ft 314 kts 313°
2026-05-07 23:06 32.98935 -96.65436 22601 ft 313 kts 312°
2026-05-07 23:06 33.00616 -96.67079 23125 ft 311 kts 312°
2026-05-07 23:06 33.02281 -96.68712 23649 ft 312 kts 312°
2026-05-07 23:06 33.03403 -96.69813 23942 ft 312 kts 311°
2026-05-07 23:07 33.05638 -96.72003 24519 ft 313 kts 311°
2026-05-07 23:07 33.06758 -96.73101 24822 ft 313 kts 310°
2026-05-07 23:07 33.08436 -96.74747 25278 ft 313 kts 310°
2026-05-07 23:07 33.10128 -96.76407 25735 ft 313 kts 310°
2026-05-07 23:08 33.11803 -96.78052 26202 ft 312 kts 309°
2026-05-07 23:08 33.13482 -96.79702 26679 ft 311 kts 309°
2026-05-07 23:08 33.15134 -96.81325 27151 ft 310 kts 308°
2026-05-07 23:08 33.16792 -96.82955 27637 ft 308 kts 307°
2026-05-07 23:09 33.18458 -96.84594 28137 ft 306 kts 307°
2026-05-07 23:09 33.20070 -96.86181 28629 ft 303 kts 307°
2026-05-07 23:09 33.21696 -96.87782 29144 ft 300 kts 306°
2026-05-07 23:09 33.23293 -96.89355 29648 ft 296 kts 305°
2026-05-07 23:10 33.24880 -96.90922 30025 ft 297 kts 305°
2026-05-07 23:10 33.26497 -96.92535 30057 ft 309 kts 305°
2026-05-07 23:10 33.28173 -96.94197 30062 ft 320 kts 306°
2026-05-07 23:10 33.29929 -96.95925 30063 ft 332 kts 307°
2026-05-07 23:11 33.31744 -96.97713 30062 ft 344 kts 307°
2026-05-07 23:11 33.33622 -96.99571 30061 ft 355 kts 307°
2026-05-07 23:11 33.35566 -97.01496 30063 ft 367 kts 308°
2026-05-07 23:11 33.37561 -97.03471 30062 ft 379 kts 308°
2026-05-07 23:12 33.39648 -97.05498 30062 ft 394 kts 311°
2026-05-07 23:12 33.42027 -97.07277 30060 ft 413 kts 320°
2026-05-07 23:12 33.44693 -97.08672 30064 ft 424 kts 328°
2026-05-07 23:12 33.47590 -97.09613 29681 ft 441 kts 338°
2026-05-07 23:13 33.50701 -97.10007 29196 ft 455 kts 346°
2026-05-07 23:13 33.53885 -97.09809 28693 ft 464 kts 354°
2026-05-07 23:13 33.57102 -97.09383 28183 ft 461 kts 355°
2026-05-07 23:13 33.60277 -97.08970 27684 ft 456 kts 354°
2026-05-07 23:14 33.63402 -97.08582 27191 ft 451 kts 354°
2026-05-07 23:14 33.66482 -97.08200 26707 ft 446 kts 355°
2026-05-07 23:14 33.69544 -97.07809 26228 ft 441 kts 355°
2026-05-07 23:14 33.72625 -97.07412 25747 ft 436 kts 355°
2026-05-07 23:15 33.75579 -97.07037 25301 ft 431 kts 355°
2026-05-07 23:15 33.78549 -97.06663 24840 ft 426 kts 356°
2026-05-07 23:15 33.81492 -97.06289 24383 ft 422 kts 356°
2026-05-07 23:15 33.84381 -97.05920 23940 ft 417 kts 356°
2026-05-07 23:16 33.87254 -97.05553 23463 ft 412 kts 356°
2026-05-07 23:16 33.90102 -97.05191 22935 ft 408 kts 357°
2026-05-07 23:16 33.92916 -97.04833 22411 ft 403 kts 357°
2026-05-07 23:16 33.95684 -97.04479 21898 ft 400 kts 357°
2026-05-07 23:17 33.98441 -97.04127 21393 ft 396 kts 358°
2026-05-07 23:17 34.01174 -97.03778 20899 ft 393 kts 358°
2026-05-07 23:17 34.03883 -97.03432 20417 ft 389 kts 358°
2026-05-07 23:17 34.06565 -97.03089 19940 ft 386 kts 358°
2026-05-07 23:18 34.09222 -97.02749 19470 ft 383 kts 358°
2026-05-07 23:18 34.11832 -97.02414 19007 ft 380 kts 358°
2026-05-07 23:18 34.14487 -97.02074 18544 ft 378 kts 359°
2026-05-07 23:18 34.17065 -97.01743 18049 ft 375 kts 359°
2026-05-07 23:19 34.19658 -97.01410 17541 ft 373 kts 359°
2026-05-07 23:19 34.22233 -97.01079 17097 ft 369 kts 359°
2026-05-07 23:19 34.24770 -97.00751 17032 ft 366 kts 359°
2026-05-07 23:19 34.27300 -97.00430 17033 ft 367 kts 359°
2026-05-07 23:20 34.29842 -97.00103 17031 ft 366 kts 359°
2026-05-07 23:20 34.32369 -96.99775 17036 ft 365 kts 359°
2026-05-07 23:20 34.34901 -96.99478 17032 ft 362 kts 355°
2026-05-07 23:20 34.37383 -96.99606 17033 ft 355 kts 345°
2026-05-07 23:21 34.39772 -97.00231 17032 ft 348 kts 336°
2026-05-07 23:21 34.41995 -97.01304 17039 ft 341 kts 327°
2026-05-07 23:21 34.44081 -97.02637 17034 ft 340 kts 326°
2026-05-07 23:21 34.46182 -97.03974 17047 ft 340 kts 326°
2026-05-07 23:22 34.48249 -97.05285 17050 ft 340 kts 326°
2026-05-07 23:22 34.50342 -97.06622 17053 ft 340 kts 326°
2026-05-07 23:22 34.52433 -97.07961 17059 ft 340 kts 326°
2026-05-07 23:22 34.54523 -97.09298 17052 ft 341 kts 327°
2026-05-07 23:23 34.56628 -97.10643 17058 ft 341 kts 327°
2026-05-07 23:23 34.58740 -97.11994 16967 ft 343 kts 327°
2026-05-07 23:23 34.60847 -97.13343 16504 ft 342 kts 327°
2026-05-07 23:23 34.62940 -97.14683 16051 ft 339 kts 327°
2026-05-07 23:24 34.65018 -97.16015 15614 ft 336 kts 327°
2026-05-07 23:24 34.67065 -97.17328 15181 ft 334 kts 327°
2026-05-07 23:24 34.69128 -97.18653 14746 ft 331 kts 327°
2026-05-07 23:24 34.71138 -97.19943 14331 ft 329 kts 327°
2026-05-07 23:25 34.73153 -97.21238 13911 ft 326 kts 327°
2026-05-07 23:25 34.75152 -97.22523 13452 ft 324 kts 327°
2026-05-07 23:25 34.77131 -97.23796 12980 ft 322 kts 327°
2026-05-07 23:25 34.79089 -97.25138 12545 ft 319 kts 325°
2026-05-07 23:26 34.80969 -97.26554 12098 ft 318 kts 325°
2026-05-07 23:26 34.82846 -97.27959 11623 ft 318 kts 325°
2026-05-07 23:26 34.84715 -97.29353 11208 ft 317 kts 325°
2026-05-07 23:26 34.86589 -97.30755 10769 ft 315 kts 325°
2026-05-07 23:27 34.90311 -97.33547 9907 ft 313 kts 325°
2026-05-07 23:27 34.92159 -97.34952 9445 ft 311 kts 325°
2026-05-07 23:27 34.93992 -97.36355 8983 ft 310 kts 325°
2026-05-07 23:28 34.95812 -97.37742 8524 ft 309 kts 325°
2026-05-07 23:28 34.97633 -97.39125 8074 ft 307 kts 326°
2026-05-07 23:28 34.99427 -97.40492 7641 ft 306 kts 326°
2026-05-07 23:28 35.01234 -97.41870 7191 ft 305 kts 326°
2026-05-07 23:29 35.03032 -97.43243 6759 ft 303 kts 327°
2026-05-07 23:29 35.04813 -97.44601 6332 ft 301 kts 328°
2026-05-07 23:29 35.06602 -97.45944 5879 ft 300 kts 331°
2026-05-07 23:29 35.08580 -97.46722 5440 ft 301 kts 352°
2026-05-07 23:30 35.10663 -97.46904 5067 ft 299 kts 355°
2026-05-07 23:30 35.12735 -97.47012 5021 ft 302 kts 356°
2026-05-07 23:30 35.14862 -97.47132 5024 ft 304 kts 356°
2026-05-07 23:30 35.16984 -97.47275 5013 ft 305 kts 355°
2026-05-07 23:31 35.19077 -97.47416 4845 ft 303 kts 355°
2026-05-07 23:31 35.21179 -97.47550 4499 ft 300 kts 356°
2026-05-07 23:31 35.23233 -97.47679 4072 ft 300 kts 355°
2026-05-07 23:31 35.25319 -97.47813 3644 ft 299 kts 356°
2026-05-07 23:32 35.27415 -97.47948 3235 ft 298 kts 355°
2026-05-07 23:32 35.29457 -97.48079 3003 ft 292 kts 356°
2026-05-07 23:32 35.31425 -97.48205 3000 ft 277 kts 355°
2026-05-07 23:32 35.33314 -97.48327 3000 ft 262 kts 355°
2026-05-07 23:33 35.35084 -97.48441 3001 ft 250 kts 356°
2026-05-07 23:33 35.36776 -97.48551 3034 ft 232 kts 355°
2026-05-07 23:33 35.38292 -97.48647 3005 ft 206 kts 354°
2026-05-07 23:33 35.39658 -97.48627 3001 ft 184 kts 358°
2026-05-07 23:34 35.40920 -97.48654 3002 ft 183 kts 355°
2026-05-07 23:34 35.42169 -97.48678 2998 ft 178 kts 357°
2026-05-07 23:34 35.43415 -97.48681 3016 ft 177 kts 358°
2026-05-07 23:34 35.44632 -97.48681 3020 ft 179 kts 358°
2026-05-07 23:35 35.45867 -97.48721 3012 ft 175 kts 347°
2026-05-07 23:35 35.46920 -97.49362 3022 ft 174 kts 329°
2026-05-07 23:35 35.47961 -97.50086 3015 ft 162 kts 326°
2026-05-07 23:35 35.48881 -97.50762 3002 ft 151 kts 327°
2026-05-07 23:36 35.49784 -97.51360 3008 ft 148 kts 329°
2026-05-07 23:36 35.50688 -97.51938 2998 ft 142 kts 330°
2026-05-07 23:36 35.51591 -97.52510 2995 ft 147 kts 329°
2026-05-07 23:36 35.52488 -97.53076 3001 ft 145 kts 329°
2026-05-07 23:37 35.53380 -97.53641 3005 ft 146 kts 328°
2026-05-07 23:37 35.54282 -97.54210 2996 ft 146 kts 329°
2026-05-07 23:37 35.55182 -97.54780 2998 ft 141 kts 329°
2026-05-07 23:37 35.56055 -97.55333 3019 ft 147 kts 328°
2026-05-07 23:38 35.56902 -97.55953 2978 ft 136 kts 309°
2026-05-07 23:38 35.57284 -97.57010 2990 ft 138 kts 272°
2026-05-07 23:38 35.57074 -97.58065 3025 ft 130 kts 241°
2026-05-07 23:38 35.56393 -97.58774 3013 ft 127 kts 204°
2026-05-07 23:39 35.55504 -97.58907 3012 ft 132 kts 181°
2026-05-07 23:39 35.54579 -97.58908 2997 ft 131 kts 183°
2026-05-07 23:39 35.53663 -97.58935 2792 ft 132 kts 185°
2026-05-07 23:39 35.52783 -97.58995 2757 ft 130 kts 186°
2026-05-07 23:40 35.51835 -97.58953 2675 ft 135 kts 179°
2026-05-07 23:40 35.50912 -97.58947 2362 ft 132 kts 180°
2026-05-07 23:40 35.50091 -97.58883 2537 ft 101 kts 180°
2026-05-07 23:40 35.49323 -97.58861 2511 ft 124 kts 180°
2026-05-07 23:41 35.48413 -97.58846 2326 ft 128 kts 183°
2026-05-07 23:41 35.47562 -97.58832 2235 ft 125 kts 183°
2026-05-07 23:41 35.46663 -97.58835 2254 ft 132 kts 183°
2026-05-07 23:41 35.45763 -97.58849 2118 ft 131 kts 181°
2026-05-07 23:42 35.44854 -97.58868 2149 ft 130 kts 182°
2026-05-07 23:42 35.43929 -97.58866 1935 ft 132 kts 181°
2026-05-07 23:42 35.43021 -97.58872 1845 ft 131 kts 181°
2026-05-07 23:42 35.42090 -97.58882 1626 ft 131 kts 182°
2026-05-07 23:43 35.41198 -97.58893 1419 ft 127 kts 180°
2026-05-07 23:43 35.40303 -97.58912 1343 ft 134 kts 178°
2026-05-07 23:43 35.39442 -97.58896 1296 ft 102 kts 179°
2026-05-07 23:43 35.38919 -97.58885 1297 ft 58 kts 181°
2026-05-07 23:44 35.38603 -97.58904 1295 ft 34 kts 198°
2026-05-07 23:44 35.38554 -97.58958 1295 ft 0 kts 251°
2026-05-07 23:45 35.38550 -97.58976 1296 ft 4 kts 258°
2026-05-07 23:46 35.38553 -97.59011 1296 ft 5 kts 291°
2026-05-07 23:46 35.38598 -97.59057 1296 ft 12 kts 347°
2026-05-07 23:46 35.38720 -97.59061 1294 ft 23 kts 360°
2026-05-07 23:46 35.38910 -97.59061 1296 ft 31 kts 360°
2026-05-07 23:47 35.39150 -97.59062 1294 ft 39 kts 359°
2026-05-07 23:47 35.39404 -97.59062 1299 ft 33 kts
2026-05-07 23:47 35.39472 -97.59113 1299 ft 6 kts 275°
2026-05-07 23:47 35.39474 -97.59164 1299 ft 6 kts 267°
2026-05-07 23:48 35.39454 -97.59208 1299 ft 6 kts 219°
2026-05-07 23:48 35.39433 -97.59221 1299 ft 4 kts 197°
2026-05-07 23:48 35.39404 -97.59239 1298 ft 5 kts 217°
2026-05-07 23:48 35.39386 -97.59285 1298 ft 8 kts 263°
2026-05-07 23:49 35.39384 -97.59383 1300 ft 17 kts 270°
2026-05-07 23:49 35.39418 -97.59510 1302 ft 11 kts 334°
2026-05-07 23:49 35.39466 -97.59518 1302 ft 1 kts 348°